When you browse on this site, cookies collect data to enhance your experience and personalize the content and advertising you see.
Visit our Privacy Policy to learn more. By continuing to use the site, you agree to this use of cookies and data.
  • In United Kingdom
  • List of Countries
  • For 7 days
  • Water Temperature
  • Weather Map
  • Weather Widgets
  • user-avatar
    Login

    Hourly Weather Genç

    Today, 21 August, Wednesday

    Time Temperature Precipitation Wind Pressure Humidity
    00:00 +22°C° 0 mm 1 mps 673 mmHg 48%
    01:00 +22°C° 0 mm 1 mps 673 mmHg 45%
    02:00 +22°C° 0 mm 1 mps 673 mmHg 42%
    03:00 +23°C° 0 mm 2 mps 673 mmHg 38%
    04:00 +23°C° 0 mm 2 mps 673 mmHg 36%
    05:00 +23°C° 0 mm 2 mps 673 mmHg 34%
    06:00 +23°C° 0 mm 2 mps 673 mmHg 31%
    07:00 +27°C° 0 mm 3 mps 674 mmHg 26%
    08:00 +31°C° 0 mm 3 mps 674 mmHg 21%
    09:00 +36°C° 0 mm 4 mps 675 mmHg 15%
    10:00 +37°C° 0 mm 5 mps 675 mmHg 14%
    11:00 +39°C° 0 mm 7 mps 675 mmHg 13%
    12:00 +40°C° 0 mm 9 mps 674 mmHg 12%
    13:00 +40°C° 0 mm 9 mps 674 mmHg 12%
    14:00 +40°C° 0 mm 10 mps 673 mmHg 12%
    15:00 +40°C° 0 mm 10 mps 673 mmHg 12%
    16:00 +39°C° 0 mm 9 mps 673 mmHg 13%
    17:00 +37°C° 0 mm 8 mps 672 mmHg 15%
    18:00 +35°C° 0 mm 7 mps 672 mmHg 16%
    19:00 +30°C° 0 mm 5 mps 672 mmHg 23%
    20:00 +26°C° 0 mm 3 mps 671 mmHg 30%
    21:00 +21°C° 0 mm 1 mps 671 mmHg 37%
    22:00 +21°C° 0 mm 1 mps 671 mmHg 39%
    23:00 +20°C° 0 mm 1 mps 671 mmHg 40%

    Tomorrow, 22 August, Thursday

    Time Temperature Precipitation Wind Pressure Humidity
    00:00 +20°C° 0 mm 1 mps 671 mmHg 41%
    01:00 +19°C° 0 mm 1 mps 671 mmHg 45%
    02:00 +19°C° 0 mm 1 mps 670 mmHg 49%
    03:00 +18°C° 0 mm 1 mps 670 mmHg 53%
    04:00 +18°C° 0 mm 1 mps 670 mmHg 52%
    05:00 +18°C° 0 mm 1 mps 670 mmHg 51%
    06:00 +18°C° 0 mm 1 mps 670 mmHg 50%
    07:00 +22°C° 0 mm 1 mps 671 mmHg 41%
    08:00 +26°C° 0 mm 1 mps 672 mmHg 31%
    09:00 +30°C° 0 mm 1 mps 673 mmHg 21%
    10:00 +31°C° 0 mm 1 mps 673 mmHg 19%
    11:00 +32°C° 0 mm 2 mps 673 mmHg 17%
    12:00 +35°C° 0 mm 3 mps 673 mmHg 15%
    13:00 +35°C° 0 mm 3 mps 672 mmHg 15%
    14:00 +36°C° 0 mm 4 mps 672 mmHg 14%
    15:00 +37°C° 0 mm 4 mps 672 mmHg 14%
    16:00 +36°C° 0 mm 4 mps 672 mmHg 16%
    17:00 +35°C° 0 mm 4 mps 672 mmHg 18%
    18:00 +34°C° 0 mm 3 mps 671 mmHg 19%
    19:00 +30°C° 0 mm 3 mps 671 mmHg 28%
    20:00 +26°C° 0 mm 2 mps 671 mmHg 37%
    21:00 +23°C° 0 mm 1 mps 671 mmHg 46%
    22:00 +22°C° 0 mm 1 mps 671 mmHg 49%
    23:00 +21°C° 0 mm 1 mps 671 mmHg 51%

    Day after tomorrow, 23 August, Friday

    Time Temperature Precipitation Wind Pressure Humidity
    00:00 +21°C° 0 mm 1 mps 671 mmHg 54%
    01:00 +20°C° 0 mm 1 mps 671 mmHg 55%
    02:00 +20°C° 0 mm 1 mps 671 mmHg 56%
    03:00 +20°C° 0 mm 1 mps 671 mmHg 57%
    04:00 +20°C° 0 mm 1 mps 671 mmHg 58%
    05:00 +20°C° 0 mm 1 mps 671 mmHg 58%
    06:00 +20°C° 0 mm 1 mps 671 mmHg 58%
    07:00 +23°C° 0 mm 1 mps 672 mmHg 48%
    08:00 +27°C° 0 mm 1 mps 673 mmHg 39%
    09:00 +30°C° 0 mm 1 mps 673 mmHg 29%
    10:00 +32°C° 0 mm 2 mps 673 mmHg 26%
    11:00 +34°C° 0 mm 2 mps 673 mmHg 23%
    12:00 +36°C° 0 mm 3 mps 673 mmHg 20%
    13:00 +36°C° 0 mm 3 mps 673 mmHg 19%
    14:00 +36°C° 0 mm 4 mps 673 mmHg 18%
    15:00 +37°C° 0 mm 4 mps 673 mmHg 17%
    16:00 +36°C° 0 mm 4 mps 673 mmHg 18%
    17:00 +35°C° 0 mm 3 mps 673 mmHg 19%
    18:00 +35°C° 0 mm 3 mps 673 mmHg 20%
    19:00 +31°C° 0 mm 3 mps 673 mmHg 29%
    20:00 +27°C° 0 mm 2 mps 672 mmHg 37%
    21:00 +24°C° 0 mm 1 mps 672 mmHg 46%
    22:00 +24°C° 0 mm 2 mps 672 mmHg 49%
    23:00 +23°C° 0 mm 2 mps 672 mmHg 51%

    24 August, Saturday

    Time Temperature Precipitation Wind Pressure Humidity
    00:00 +21°C° 0 mm 2 mps 672 mmHg 54%
    01:00 +21°C° 0 mm 2 mps 672 mmHg 56%
    02:00 +20°C° 0 mm 2 mps 672 mmHg 59%
    03:00 +20°C° 0 mm 2 mps 672 mmHg 61%
    04:00 +19°C° 0 mm 2 mps 672 mmHg 61%
    05:00 +20°C° 0 mm 1 mps 672 mmHg 61%
    06:00 +20°C° 0 mm 1 mps 673 mmHg 61%
    07:00 +24°C° 0 mm 1 mps 674 mmHg 50%
    08:00 +27°C° 0 mm 1 mps 675 mmHg 39%
    09:00 +31°C° 0 mm 1 mps 675 mmHg 28%
    10:00 +32°C° 0 mm 2 mps 675 mmHg 25%
    11:00 +35°C° 0 mm 3 mps 676 mmHg 22%
    12:00 +36°C° 0 mm 4 mps 676 mmHg 18%
    13:00 +37°C° 0 mm 5 mps 675 mmHg 17%
    14:00 +37°C° 0 mm 5 mps 675 mmHg 15%
    15:00 +39°C° 0 mm 6 mps 675 mmHg 13%
    16:00 +37°C° 0 mm 5 mps 675 mmHg 13%
    17:00 +37°C° 0 mm 4 mps 675 mmHg 13%
    18:00 +36°C° 0 mm 4 mps 674 mmHg 14%
    19:00 +31°C° 0 mm 3 mps 674 mmHg 22%
    20:00 +28°C° 0 mm 2 mps 673 mmHg 31%
    21:00 +24°C° 0 mm 1 mps 673 mmHg 40%
    22:00 +23°C° 0 mm 1 mps 673 mmHg 42%
    23:00 +23°C° 0 mm 2 mps 673 mmHg 44%

    25 August, Sunday

    Time Temperature Precipitation Wind Pressure Humidity
    00:00 +21°C° 0 mm 2 mps 673 mmHg 45%
    01:00 +21°C° 0 mm 2 mps 673 mmHg 48%
    02:00 +20°C° 0 mm 2 mps 673 mmHg 51%
    03:00 +20°C° 0 mm 2 mps 672 mmHg 53%
    04:00 +20°C° 0 mm 2 mps 673 mmHg 52%
    05:00 +20°C° 0 mm 2 mps 673 mmHg 50%
    06:00 +20°C° 0 mm 2 mps 673 mmHg 49%
    07:00 +25°C° 0 mm 2 mps 674 mmHg 40%
    08:00 +29°C° 0 mm 2 mps 674 mmHg 31%
    09:00 +32°C° 0 mm 1 mps 675 mmHg 23%
    10:00 +35°C° 0 mm 2 mps 675 mmHg 20%
    11:00 +37°C° 0 mm 3 mps 675 mmHg 17%
    12:00 +39°C° 0 mm 3 mps 675 mmHg 14%
    13:00 +40°C° 0 mm 4 mps 675 mmHg 13%
    14:00 +41°C° 0 mm 5 mps 674 mmHg 12%
    15:00 +41°C° 0 mm 6 mps 674 mmHg 11%
    16:00 +40°C° 0 mm 5 mps 673 mmHg 12%
    17:00 +40°C° 0 mm 4 mps 673 mmHg 13%
    18:00 +38°C° 0 mm 3 mps 673 mmHg 14%
    19:00 +34°C° 0 mm 2 mps 672 mmHg 18%
    20:00 +30°C° 0 mm 2 mps 672 mmHg 22%
    21:00 +26°C° 0 mm 2 mps 672 mmHg 26%
    22:00 +25°C° 0 mm 2 mps 672 mmHg 30%
    23:00 +25°C° 0 mm 2 mps 672 mmHg 33%

    26 August, Monday

    Time Temperature Precipitation Wind Pressure Humidity
    00:00 +24°C° 0 mm 2 mps 672 mmHg 37%
    01:00 +23°C° 0 mm 2 mps 672 mmHg 37%
    02:00 +23°C° 0 mm 2 mps 671 mmHg 38%
    03:00 +21°C° 0 mm 2 mps 671 mmHg 38%
    04:00 +22°C° 0 mm 1 mps 671 mmHg 39%
    05:00 +21°C° 0 mm 1 mps 672 mmHg 39%
    06:00 +21°C° 0 mm 1 mps 672 mmHg 40%
    07:00 +25°C° 0 mm 1 mps 673 mmHg 34%
    08:00 +28°C° 0 mm 1 mps 673 mmHg 28%
    09:00 +32°C° 0 mm 1 mps 674 mmHg 22%
    10:00 +34°C° 0 mm 2 mps 675 mmHg 19%
    11:00 +36°C° 0 mm 3 mps 675 mmHg 16%
    12:00 +37°C° 0 mm 4 mps 675 mmHg 13%
    13:00 +38°C° 0 mm 4 mps 674 mmHg 12%
    14:00 +38°C° 0 mm 4 mps 674 mmHg 11%
    15:00 +38°C° 0 mm 4 mps 674 mmHg 10%
    16:00 +37°C° 0 mm 4 mps 674 mmHg 12%
    17:00 +36°C° 0 mm 3 mps 674 mmHg 14%
    18:00 +35°C° 0 mm 3 mps 673 mmHg 16%
    19:00 +31°C° 0 mm 2 mps 673 mmHg 27%
    20:00 +27°C° 0 mm 2 mps 673 mmHg 37%
    21:00 +24°C° 0 mm 1 mps 673 mmHg 48%
    22:00 +23°C° 0 mm 1 mps 673 mmHg 49%
    23:00 +23°C° 0 mm 1 mps 673 mmHg 51%
    Show more